Regional Weather Roundup
Issued by NWS

Home | Current Version | Previous Version | Text Only | Print | Product List | Glossary On
Versions: 1 2 3 4 5 6 7 8 9 10 11 12 13 14 15 16 17 18 19 20 21 22 23 24 25 26 27 28 29 30 31 32 33 34 35 36 37 38 39 40 41 42 43 44 45 46 47 48 49 50
000
ASUS43 KLMK 311010
RWRKY
KENTUCKY REGIONAL WEATHER ROUNDUP
NATIONAL WEATHER SERVICE LOUISVILLE KY
500 AM EST SAT JAN 31 2015

NOTE "FAIR" INDICATES FEW OR NO CLOUDS BELOW 12,000 FEET
WITH NO SIGNIFICANT WEATHER AND/OR OBSTRUCTIONS TO VISIBILITY.

KYZ001>023-026-027-061>063-070>075-311100-
WESTERN AND SOUTH CENTRAL KENTUCKY

CITY           SKY/WX    TMP DP  RH WIND       PRES   REMARKS
PADUCAH        PTCLDY    25  21  85 CALM      30.38F
HENDERSON      PTCLDY    23  19  86 CALM      30.39F
OWENSBORO      MOCLDY    24  21  88 CALM      30.39F
HOPKINSVILLE   MOCLDY    25  20  82 CALM      30.38F
BOWLING GREEN  PTCLDY    21  17  84 CALM      30.39F
GLASGOW        PTCLDY    20  18  91 CALM      30.38F
$$

KYZ024-025-028>034-038-045-046-053-311100-
NORTH CENTRAL KENTUCKY

CITY           SKY/WX    TMP DP  RH WIND       PRES   REMARKS
LOUISVILLE/SDF PTCLDY    24  15  68 E3        30.39F
LOUISVILLE/LOU CLEAR     22  16  78 CALM      30.40F
FORT KNOX      PTCLDY    19  15  84 CALM      30.36F
$$

KYZ035>037-039>044-047>052-055>060-089>105-311100-
NORTHEAST KENTUCKY

CITY           SKY/WX    TMP DP  RH WIND       PRES   REMARKS
LEXINGTON      CLEAR     19  12  74 SE6       30.37F WCI  11
COVINGTON      CLEAR     18  13  80 S5        30.36F WCI  11
FRANKFORT      CLEAR     16  11  80 CALM      30.37F
$$

KYZ054-064>069-076>088-106>120-311100-
SOUTHEAST KENTUCKY

CITY           SKY/WX    TMP DP  RH WIND       PRES   REMARKS
JACKSON        CLEAR     21  12  68 E3        30.36F
LONDON         CLEAR     20  13  74 CALM      30.36F
SOMERSET       CLEAR     18  18 100 CALM      30.40S
MIDDLESBORO    CLEAR     19  17  92 CALM      30.39S
MONTICELLO     SUNNY     15  13  92 CALM      30.40F
$$



USA.gov is the U.S. government's official web portal to all federal, state and local government web resources and services.